Location: Beetenbrück
(52.8113°N, 9.5946°E)
Time: 21:03:48
(UTC+00:00)

ASTEX 1 - Pass Details

Date: 14 April 2026
Orbit: 713 x 733 km, 92.7° (Epoch: 12 May)

Event Time Altitude Azimuth Distance (km) Brightness Sun altitude
Exits shadow 20:00:52 20° 150° (SSE) 1,638 4.7 -14.3°
Maximum altitude 20:04:09 57° 78° (ENE) 856 3.5 -14.7°
Drops below altitude 10° 20:08:59 10° 1° (N) 2,237 6.5 -15.3°
Sets 20:11:19 0° 357° (N) 3,166 7.4 -15.6°
